Skip Page Navigation
NASA JPL Caltech
NASA Logo - Jet Propulsion Laboratory + View the NASA Portal
+ Center for Near-Earth Object Studies
JPL Home Earth Solar System Stars & Galaxies Technology
JPL Solar System Dynamics
BODIES ORBITS EPHEMERIDES TOOLS PHYSICAL DATA DISCOVERY FAQ SITE MAP
IMPORTANT: The SSD Announcement email list is now available. Major changes are coming in the near future, including possible hostname and/or URL changes. To be notified of such changes, subscribe to this email list.

Please visit this page for more details.


JPL Small-Body Database Browser
Search: [ help ]  
351302 (2004 TB193)
Classification: Main-belt Asteroid          SPK-ID: 2351302
Ephemeris | Orbit Diagram | Orbital Elements | Mission Design | Physical Parameters | Discovery Circumstances | Close-Approach Data ]

[ show orbit diagram ]
Orbital Elements at Epoch 2458600.5 (2019-Apr-27.0) TDB
Reference: JPL 10 (heliocentric ecliptic J2000)
 Element Value Uncertainty (1-sigma)   Units 
e .1459999914067233 6.1853e-08  
a 2.394276951626495 1.9015e-08 au
q 2.04471253726371 1.4956e-07 au
i 2.648041973307221 9.6415e-06 deg
node 169.0024053093686 0.00012034 deg
peri 313.1663048521835 0.00012453 deg
M 245.1577925014478 2.9736e-05 deg
tp 2459032.177124709125
(2020-Jul-01.67712471)
0.00011246 TDB
period 1353.193815063544
3.70
1.612e-05
4.413e-08
d
yr
n .2660372786163636 3.1693e-09 deg/d
Q 2.743841365989279 2.1791e-08 au
  Orbit Determination Parameters
   # obs. used (total)      139  
   data-arc span      6471 days (17.72 yr)  
   first obs. used      2002-02-07  
   last obs. used      2019-10-27  
   planetary ephem.      DE431  
   SB-pert. ephem.      SB431-N16  
   condition code      0  
   norm. resid. RMS      .58124  
   source      ORB  
   producer      Otto Matic  
   solution date      2019-Nov-08 10:47:21  

Additional Information
 Earth MOID = 1.06184 au 
 Jupiter MOID = 2.32644 au 
 T_jup = 3.514 
[ show covariance matrix ]

Ephemeris | Orbit Diagram | Orbital Elements | Mission Design | Physical Parameters | Discovery Circumstances | Close-Approach Data ]

Physical Parameter Table
Parameter Symbol Value Units Sigma Reference Notes
absolute magnitude H 17.6   n/a MPO455542  

351302 (2004 TB193)          Discovered 2004-Oct-07 by Spacewatch at Kitt Peak
Reference: 20130127/Numbers.arcLast Updated: 2013-01-31

[ show close-approach data ]
Alternate Designations
 2004 TB193 = 2002 CB123 
Ephemeris | Orbit Diagram | Orbital Elements | Mission Design | Physical Parameters | Discovery Circumstances | Close-Approach Data ]
ABOUT SSD CREDITS/AWARDS PRIVACY/COPYRIGHT GLOSSARY LINKS
FirstGov
(server date/time)  
NASA Home Page
Site Manager:   Ryan S. Park
Webmaster  Alan B. Chamberlin